Hourly Data Report for October 05, 2017

All times are specified in Local Standard Time (LST). Add 1 hour to adjust for Daylight Saving Time where and when it is observed.

MONCTON INTL A
NEW BRUNSWICK

46°06'44.000" N
64°40'43.000" W
70.70 m
8103201
71705
YQM

Download Data

Hourly Data (October 2017)
Hourly Data Report for October 5, 2017
Temp Definition
°C
Dew Point Temp Definition
°C
Rel Hum Definition
%
Wind Dir Definition
10's deg

Wind Spd Definition
km/h
Visibility Definition
km
Stn Press Definition
kPa
Hmdx Definition


Wind Chill Definition


Weather Definition


TIME
00:00 Legend Double Dagger 15.4 8.2 62 20 21 24.1 100.16     LegendNANA
01:00 Legend Double Dagger 16.0 11.1 73 22 14 24.1 100.09     LegendNANA
02:00 Legend Double Dagger 14.5 12.3 86 21 17 16.1 100.11     Rain
03:00 Legend Double Dagger 14.2 13.1 93 22 13 24.1 100.04     LegendNANA
04:00 Legend Double Dagger 14.4 13.7 95 22 14 24.1 99.98     LegendNANA
05:00 Legend Double Dagger 14.2 13.3 94 23 16 24.1 100.03     Mainly Clear
06:00 Legend Double Dagger 14.4 13.2 93 23 21 24.1 100.05     LegendNANA
07:00 Legend Double Dagger 14.9 13.7 92 25 28 24.1 100.16     LegendNANA
08:00 Legend Double Dagger 16.5 14.3 86 26 23 24.1 100.24     Clear
09:00 Legend Double Dagger 16.6 13.2 LegendMM 27 15 24.1 100.32     LegendNANA
10:00 Legend Double Dagger 17.3 12.8 LegendMM 3 13 24.1 100.34     LegendNANA
11:00 Legend Double Dagger 19.3 11.8 LegendMM 3 13 24.1 100.37     Mainly Clear
12:00 Legend Double Dagger 22.3 9.6 LegendMM 31 9 24.1 103.41     LegendNANA
13:00 Legend Double Dagger 20.9 8.8 LegendMM 27 9 24.1 100.29     LegendNANA
14:00 Legend Double Dagger 22.5 7.8 LegendMM 31 9 24.1 100.29     Mainly Clear
15:00 Legend Double Dagger 19.8 8.1 LegendMM 27 13 24.1 100.24     LegendNANA
16:00 Legend Double Dagger 19.4 7.2 LegendMM 27 9 24.1 100.27     LegendNANA
17:00 Legend Double Dagger 18.2 6.6 46 26 26 24.1 100.31     Mostly Cloudy
18:00 Legend Double Dagger 15.0 6.2 55 26 10 24.1 100.36     LegendNANA
19:00 Legend Double Dagger 14.2 6.4 59 27 9 24.1 100.38     LegendNANA
20:00 Legend Double Dagger 12.7 6.1 64 24 10 24.1 100.42     Mainly Clear
21:00 Legend Double Dagger 10.4 6.6 77 18 15 24.1 100.43     LegendNANA
22:00 Legend Double Dagger 11.5 7.1 74 19 11 24.1 100.43     LegendNANA
23:00 Legend Double Dagger 12.0 7.1 72 18 10 24.1 100.37     Mostly Cloudy

Notes on Data Quality.

Legend

  • E = Estimated
  • M = Missing
  • NA = Not Available
  • ‡ = Partner data that is not subject to review by the National Climate Archives
Date modified: